Location: Bennemühlen
(52.5740°N, 9.7135°E)
Time: 02:06:54
(UTC+00:00)

Vanguard 2 Rocket - Pass Details

Date: 20 February 2026
Orbit: 553 x 3286 km, 32.9° (Epoch: 12 March)

Event Time Altitude Azimuth Distance (km) Brightness Sun altitude
Rises 11:22:43 0° 227° (SW) 7,250 12.0 26.6°
Reaches altitude 10° 11:28:31 10° 219° (SW) 6,202 12.0 26.6°
Maximum altitude 11:43:50 31° 167° (SSE) 4,105 12.3 26.6°
Drops below altitude 10° 11:55:26 10° 113° (ESE) 4,689 10.8 26.5°
Sets 11:59:02 0° 103° (ESE) 5,324 10.9 26.4°
